Radiation Dose at Monitoring Post of Fukushima Daini Nuclear Power Station
Date,Time,MP-1(microSv/h),MP-2(microSv/h),MP-3(microSv/h),MP-4(microSv/h),MP-5(microSv/h),MP-6(microSv/h),MP-7(microSv/h),Wind Direction,Wind Velocity(m/s),Rain
2023/10/29,00:00,0.149,0.134,0.215,0.204,0.211,0.121,0.077,northwest,5.8,No
2023/10/29,00:10,0.148,0.134,0.216,0.204,0.209,0.121,0.077,northwest,5.5,No
2023/10/29,00:20,0.150,0.134,0.215,0.205,0.209,0.121,0.077,northwest,5.3,No
2023/10/29,00:30,0.149,0.134,0.216,0.204,0.209,0.121,0.077,northwest,6.0,No
2023/10/29,00:40,0.149,0.134,0.216,0.205,0.209,0.121,0.077,northwest,6.0,No
2023/10/29,00:50,0.148,0.136,0.217,0.205,0.211,0.121,0.077,northwest,5.1,No
2023/10/29,01:00,0.147,0.134,0.215,0.203,0.208,0.122,0.077,northwest,4.8,No
2023/10/29,01:10,0.149,0.134,0.216,0.205,0.210,0.121,0.078,northwest,5.1,No
2023/10/29,01:20,0.149,0.135,0.216,0.205,0.209,0.121,0.077,northwest,4.8,No
2023/10/29,01:30,0.148,0.134,0.216,0.204,0.210,0.121,0.077,northwest,5.0,No
2023/10/29,01:40,0.149,0.135,0.217,0.205,0.210,0.120,0.077,northwest,4.3,No
2023/10/29,01:50,0.148,0.134,0.217,0.205,0.209,0.120,0.077,northwest,4.2,No
2023/10/29,02:00,0.149,0.135,0.215,0.205,0.210,0.121,0.077,northwest,5.4,No
2023/10/29,02:10,0.149,0.135,0.215,0.207,0.209,0.121,0.077,west-northwest,5.7,No
2023/10/29,02:20,0.148,0.135,0.216,0.205,0.209,0.121,0.077,west-northwest,5.7,No
2023/10/29,02:30,0.149,0.134,0.215,0.203,0.210,0.121,0.077,northwest,5.2,No
2023/10/29,02:40,0.148,0.135,0.216,0.205,0.208,0.122,0.077,northwest,7.8,No
2023/10/29,02:50,0.149,0.134,0.216,0.203,0.210,0.122,0.077,northwest,9.2,No
2023/10/29,03:00,0.149,0.135,0.218,0.204,0.210,0.121,0.076,northwest,7.6,No
2023/10/29,03:10,0.149,0.134,0.217,0.205,0.210,0.120,0.077,northwest,8.4,No
2023/10/29,03:20,0.149,0.134,0.217,0.204,0.210,0.121,0.078,northwest,9.0,No
2023/10/29,03:30,0.148,0.135,0.216,0.204,0.208,0.121,0.076,northwest,7.2,No
2023/10/29,03:40,0.149,0.135,0.216,0.204,0.210,0.121,0.077,northwest,8.2,No
2023/10/29,03:50,0.149,0.133,0.217,0.204,0.208,0.120,0.076,northwest,8.1,No
2023/10/29,04:00,0.149,0.135,0.215,0.205,0.210,0.120,0.076,northwest,9.2,No
2023/10/29,04:10,0.150,0.134,0.215,0.204,0.208,0.121,0.077,northwest,8.2,No
2023/10/29,04:20,0.148,0.134,0.217,0.204,0.210,0.121,0.077,northwest,8.5,No
2023/10/29,04:30,0.150,0.133,0.215,0.204,0.209,0.121,0.077,northwest,8.1,No
2023/10/29,04:40,0.149,0.135,0.216,0.204,0.209,0.121,0.077,northwest,8.3,No
2023/10/29,04:50,0.149,0.135,0.216,0.204,0.211,0.121,0.077,northwest,8.1,No
2023/10/29,05:00,0.148,0.134,0.214,0.203,0.209,0.121,0.077,northwest,7.7,No
2023/10/29,05:10,0.148,0.135,0.215,0.204,0.209,0.120,0.077,northwest,7.6,No
2023/10/29,05:20,0.149,0.134,0.217,0.204,0.210,0.120,0.077,northwest,8.8,No
2023/10/29,05:30,0.149,0.133,0.216,0.204,0.209,0.121,0.077,northwest,7.7,No
2023/10/29,05:40,0.150,0.135,0.215,0.204,0.210,0.120,0.076,northwest,7.0,No
2023/10/29,05:50,0.149,0.134,0.216,0.204,0.209,0.122,0.077,northwest,6.7,No
2023/10/29,06:00,0.148,0.134,0.217,0.205,0.209,0.121,0.077,northwest,6.7,No
2023/10/29,06:10,0.149,0.134,0.216,0.205,0.208,0.121,0.077,northwest,8.5,No
2023/10/29,06:20,0.149,0.135,0.216,0.204,0.210,0.121,0.076,northwest,8.1,No
2023/10/29,06:30,0.148,0.135,0.216,0.204,0.209,0.121,0.076,northwest,8.4,No
2023/10/29,06:40,0.149,0.134,0.217,0.205,0.210,0.120,0.077,northwest,8.1,No
2023/10/29,06:50,0.148,0.135,0.217,0.204,0.210,0.120,0.077,northwest,8.3,No
2023/10/29,07:00,0.148,0.134,0.216,0.205,0.208,0.121,0.077,northwest,9.2,No
2023/10/29,07:10,0.148,0.134,0.216,0.204,0.209,0.121,0.077,northwest,7.6,No
2023/10/29,07:20,0.149,0.135,0.216,0.203,0.208,0.120,0.077,northwest,9.0,No
2023/10/29,07:30,0.148,0.134,0.215,0.204,0.210,0.121,0.077,northwest,7.3,No
2023/10/29,07:40,0.149,0.135,0.216,0.203,0.210,0.121,0.077,northwest,6.8,No
2023/10/29,07:50,0.148,0.135,0.215,0.203,0.210,0.120,0.077,northwest,8.3,No
2023/10/29,08:00,0.149,0.134,0.216,0.203,0.209,0.120,0.076,northwest,7.8,No
2023/10/29,08:10,0.148,0.134,0.215,0.203,0.210,0.120,0.078,northwest,7.4,No
2023/10/29,08:20,0.149,0.134,0.217,0.203,0.209,0.121,0.078,northwest,7.8,No
2023/10/29,08:30,0.148,0.135,0.215,0.204,0.211,0.121,0.077,northwest,7.2,No
2023/10/29,08:40,0.149,0.134,0.216,0.204,0.209,0.120,0.077,northwest,7.2,No
2023/10/29,08:50,0.148,0.135,0.217,0.203,0.211,0.120,0.076,northwest,7.4,No
2023/10/29,09:00,0.149,0.134,0.216,0.205,0.207,0.120,0.076,northwest,7.4,No
2023/10/29,09:10,0.149,0.134,0.216,0.203,0.211,0.121,0.078,north-northwest,6.8,No
2023/10/29,09:20,0.149,0.134,0.217,0.205,0.207,0.120,0.076,northwest,7.0,No
2023/10/29,09:30,0.147,0.134,0.216,0.203,0.209,0.122,0.076,northwest,7.5,No
2023/10/29,09:40,0.150,0.135,0.215,0.204,0.209,0.121,0.077,north-northwest,7.2,No
2023/10/29,09:50,0.148,0.135,0.215,0.205,0.208,0.121,0.076,northwest,7.1,No
2023/10/29,10:00,0.147,0.134,0.214,0.204,0.209,0.121,0.076,northwest,9.3,No
2023/10/29,10:10,0.149,0.134,0.217,0.204,0.209,0.121,0.076,north-northwest,8.4,No
2023/10/29,10:20,0.149,0.134,0.215,0.203,0.207,0.120,0.076,north-northwest,9.8,No
2023/10/29,10:30,0.147,0.135,0.214,0.204,0.210,0.121,0.077,northwest,7.8,No
2023/10/29,10:40,0.149,0.134,0.217,0.205,0.209,0.121,0.076,northwest,7.1,No
2023/10/29,10:50,0.150,0.135,0.215,0.203,0.210,0.121,0.077,north-northwest,7.7,No
2023/10/29,11:00,0.148,0.135,0.216,0.204,0.210,0.122,0.077,north-northwest,8.2,No
2023/10/29,11:10,0.149,0.134,0.216,0.205,0.209,0.121,0.077,north-northwest,8.1,No
2023/10/29,11:20,0.149,0.134,0.215,0.204,0.209,0.120,0.077,north-northwest,6.9,No
2023/10/29,11:30,0.148,0.135,0.216,0.206,0.210,0.121,0.076,north-northwest,6.7,No
2023/10/29,11:40,0.149,0.135,0.218,0.203,0.208,0.122,0.077,north-northwest,7.3,No
2023/10/29,11:50,0.149,0.134,0.215,0.203,0.208,0.121,0.076,northwest,6.5,No
2023/10/29,12:00,0.147,0.134,0.215,0.205,0.210,0.121,0.077,north,5.8,No
2023/10/29,12:10,0.150,0.134,0.217,0.205,0.209,0.122,0.076,northwest,8.5,No
2023/10/29,12:20,0.150,0.133,0.216,0.205,0.208,0.121,0.076,north-northwest,8.6,No
2023/10/29,12:30,0.147,0.135,0.215,0.204,0.212,0.122,0.076,north-northwest,6.7,No
2023/10/29,12:40,0.147,0.135,0.217,0.207,0.209,0.122,0.076,north-northwest,11.5,No
2023/10/29,12:50,0.150,0.134,0.216,0.204,0.209,0.121,0.077,northwest,9.5,No
2023/10/29,13:00,0.149,0.135,0.216,0.205,0.211,0.121,0.078,north-northwest,7.6,No
2023/10/29,13:10,0.149,0.135,0.217,0.206,0.209,0.122,0.077,north-northwest,8.6,No
2023/10/29,13:20,0.151,0.134,0.216,0.205,0.209,0.122,0.076,north-northwest,8.3,No
2023/10/29,13:30,0.149,0.136,0.215,0.205,0.210,0.122,0.077,north-northwest,7.4,No
2023/10/29,13:40,0.149,0.134,0.218,0.205,0.209,0.122,0.077,north-northwest,6.5,No
2023/10/29,13:50,0.150,0.134,0.216,0.205,0.212,0.121,0.077,north-northwest,5.5,No
2023/10/29,14:00,0.148,0.135,0.218,0.206,0.210,0.122,0.078,north-northwest,7.3,No
2023/10/29,14:10,0.151,0.133,0.215,0.206,0.209,0.121,0.077,north-northwest,7.5,No
2023/10/29,14:20,0.149,0.134,0.217,0.204,0.213,0.121,0.077,north-northwest,7.1,No
2023/10/29,14:30,0.149,0.136,0.217,0.206,0.210,0.120,0.077,north-northwest,6.9,No
2023/10/29,14:40,0.149,0.134,0.217,0.205,0.211,0.121,0.076,north,7.3,No
2023/10/29,14:50,0.148,0.136,0.217,0.206,0.211,0.123,0.077,north-northwest,4.0,No
2023/10/29,15:00,0.150,0.135,0.216,0.205,0.209,0.121,0.077,north,5.9,No
2023/10/29,15:10,0.149,0.134,0.217,0.204,0.212,0.122,0.077,north-northwest,3.7,No
2023/10/29,15:20,0.149,0.136,0.216,0.207,0.210,0.122,0.078,north-northwest,4.6,No
2023/10/29,15:30,0.151,0.135,0.218,0.205,0.211,0.121,0.076,north-northwest,4.9,No
2023/10/29,15:40,0.148,0.136,0.216,0.207,0.210,0.122,0.077,north-northwest,5.2,No
2023/10/29,15:50,0.150,0.135,0.219,0.204,0.210,0.122,0.077,north-northwest,4.6,No
2023/10/29,16:00,0.148,0.136,0.216,0.206,0.210,0.122,0.077,north-northwest,4.8,No
2023/10/29,16:10,0.150,0.134,0.218,0.205,0.210,0.122,0.078,north-northwest,5.2,No
2023/10/29,16:20,0.149,0.136,0.216,0.207,0.212,0.122,0.076,north-northwest,5.3,No
2023/10/29,16:30,0.149,0.136,0.219,0.205,0.210,0.121,0.077,north-northwest,6.3,No
2023/10/29,16:40,0.150,0.135,0.217,0.207,0.212,0.121,0.077,north-northwest,6.0,No
2023/10/29,16:50,0.150,0.136,0.218,0.205,0.209,0.121,0.078,north-northwest,4.8,No
2023/10/29,17:00,0.149,0.136,0.217,0.205,0.212,0.121,0.077,north-northwest,4.7,No
2023/10/29,17:10,0.149,0.134,0.217,0.205,0.210,0.121,0.078,northwest,4.3,No
2023/10/29,17:20,0.150,0.136,0.217,0.207,0.212,0.121,0.076,north-northeast,3.9,Yes
2023/10/29,17:30,0.149,0.135,0.218,0.205,0.210,0.121,0.078,northeast,7.1,Yes
2023/10/29,17:40,0.150,0.135,0.217,0.206,0.212,0.122,0.078,north-northeast,8.7,Yes
2023/10/29,17:50,0.151,0.137,0.218,0.206,0.210,0.123,0.079,north,10.0,Yes
2023/10/29,18:00,0.152,0.138,0.221,0.208,0.212,0.123,0.079,north,9.0,Yes
2023/10/29,18:10,0.152,0.138,0.217,0.205,0.209,0.124,0.081,north-northwest,9.2,Yes
2023/10/29,18:20,0.155,0.141,0.220,0.207,0.214,0.127,0.084,north-northwest,9.0,Yes
2023/10/29,18:30,0.158,0.144,0.222,0.210,0.216,0.128,0.087,north-northwest,9.5,Yes
2023/10/29,18:40,0.158,0.145,0.224,0.213,0.218,0.131,0.089,northwest,8.3,Yes
2023/10/29,18:50,0.158,0.144,0.225,0.214,0.218,0.131,0.087,northwest,7.9,Yes
2023/10/29,19:00,0.156,0.143,0.223,0.211,0.215,0.130,0.087,northwest,8.1,No
2023/10/29,19:10,0.156,0.142,0.223,0.212,0.217,0.129,0.086,north-northwest,8.5,Yes
2023/10/29,19:20,0.157,0.143,0.221,0.210,0.215,0.129,0.086,north-northwest,7.8,Yes
2023/10/29,19:30,0.156,0.142,0.221,0.210,0.216,0.129,0.086,northwest,8.5,Yes
2023/10/29,19:40,0.157,0.143,0.222,0.212,0.216,0.130,0.087,northwest,8.7,Yes
2023/10/29,19:50,0.157,0.142,0.223,0.211,0.216,0.129,0.086,northwest,8.2,Yes
2023/10/29,20:00,0.156,0.141,0.220,0.210,0.216,0.128,0.085,northwest,8.4,No
2023/10/29,20:10,0.153,0.140,0.220,0.208,0.213,0.127,0.084,northwest,9.2,No
2023/10/29,20:20,0.152,0.138,0.218,0.206,0.214,0.124,0.083,northwest,9.8,No
2023/10/29,20:30,0.152,0.137,0.216,0.206,0.211,0.124,0.082,northwest,9.5,No
2023/10/29,20:40,0.149,0.136,0.216,0.203,0.209,0.122,0.080,northwest,9.5,No
2023/10/29,20:50,0.150,0.134,0.216,0.205,0.210,0.122,0.079,northwest,10.3,No
2023/10/29,21:00,0.148,0.134,0.214,0.203,0.208,0.120,0.078,northwest,9.5,No
2023/10/29,21:10,0.147,0.133,0.214,0.202,0.210,0.120,0.078,northwest,8.8,No
2023/10/29,21:20,0.147,0.132,0.212,0.202,0.206,0.120,0.078,northwest,9.6,No
2023/10/29,21:30,0.146,0.134,0.211,0.202,0.208,0.120,0.077,northwest,9.0,No
2023/10/29,21:40,0.146,0.133,0.213,0.201,0.208,0.118,0.076,northwest,8.8,No
2023/10/29,21:50,0.146,0.131,0.212,0.202,0.207,0.118,0.076,northwest,8.6,No
2023/10/29,22:00,0.146,0.132,0.212,0.200,0.208,0.118,0.076,northwest,8.7,No
2023/10/29,22:10,0.146,0.131,0.212,0.201,0.206,0.118,0.076,northwest,8.8,No
2023/10/29,22:20,0.146,0.132,0.212,0.200,0.207,0.119,0.076,northwest,9.2,No
2023/10/29,22:30,0.146,0.132,0.211,0.199,0.206,0.119,0.076,northwest,9.0,No
2023/10/29,22:40,0.145,0.132,0.211,0.201,0.207,0.118,0.076,northwest,9.2,No
2023/10/29,22:50,0.145,0.131,0.211,0.199,0.207,0.119,0.075,northwest,9.5,No
2023/10/29,23:00,0.146,0.131,0.211,0.200,0.206,0.117,0.076,northwest,9.8,No
2023/10/29,23:10,0.145,0.131,0.213,0.200,0.207,0.118,0.076,north-northwest,8.2,No
2023/10/29,23:20,0.146,0.131,0.210,0.201,0.206,0.119,0.075,northwest,9.2,No
2023/10/29,23:30,0.146,0.131,0.211,0.200,0.207,0.118,0.075,northwest,9.3,No
2023/10/29,23:40,0.144,0.132,0.212,0.201,0.207,0.118,0.075,northwest,9.2,No
2023/10/29,23:50,0.145,0.132,0.211,0.200,0.206,0.118,0.075,north-northwest,9.6,No
